Naples, FL

8:08 PM EDT on September 25, 2016 (GMT -0400)
Naples Municipal

Weather History for KAPF - March, 2014

Change the Weather History Date:

Saturday, March 15, 2014

  Actual Average Record
Temperature  
Mean Temperature 70 °F 70 °F  
Max Temperature 82 °F 80 °F 90 °F (1952)
Min Temperature 58 °F 60 °F 37 °F (1993)
Degree Days  
Heating Degree Days 0 1  
Month to date heating degree days 4 15  
Since 1 July heating degree days 146 248  
Cooling Degree Days 5 5  
Month to date cooling degree days 66 75  
Year to date cooling degree days 339 266  
Growing Degree Days 18 (Base 50)    
Moisture  
Dew Point 57 °F    
Average Humidity 66    
Maximum Humidity 86    
Minimum Humidity 45    
Precipitation  
Precipitation 0.00 in 0.06 in 0.85 in (1991)
Month to date precipitation 0.89 1.03  
Year to date precipitation 4.05 4.98  
Snow  
Snow 0.00 in - - ()
Month to date snowfall 0.0  
Since 1 July snowfall 0.0  
Snow Depth 0.00 in    
Sea Level Pressure  
Sea Level Pressure 30.09 in    
Wind  
Wind Speed 7 mph (ESE)    
Max Wind Speed 17 mph    
Max Gust Speed 20 mph    
Visibility 10 miles    
Events      
T = Trace of Precipitation, MM = Missing Value Source: NWS Daily Summary

Daily Weather History Graph

Daily Weather History Graph

Search for Another Location

Airport or City:

Trip Planner

Search our weather history database for the weather conditions in past years. The results will help you decide how hot, cold, wet, or windy it might be!

Date:

Astronomy

Mar. 15, 2014 Rise Set
Actual Time 7:36 AM EDT 7:35 PM EDT
Civil Twilight 7:13 AM EDT 7:58 PM EDT
Nautical Twilight 6:46 AM EDT 8:25 PM EDT
Astronomical Twilight 6:19 AM EDT 8:52 PM EDT
Moon 6:54 PM EDT (3/15) 6:44 AM EDT (3/15)
Length of Visible Light 12h 45m
Length of Day
11h 59m
Waxing Gibbous, 99% of the Moon is Illuminated
Mar 15
Waxing Gibbous
Mar 16
Full
Mar 23
Last Quarter
Mar 30
New
Apr 7
First Quarter

Hourly Weather History & Observations

Time (EDT) Temp. Heat Index Dew Point Humidity Pressure Visibility Wind Dir Wind Speed Gust Speed Precip Events Conditions
12:53 AM 63.0 °F - 54.0 °F 72% 30.17 in 10.0 mi East 6.9 mph - N/A   Clear
1:53 AM 62.1 °F - 53.1 °F 72% 30.17 in 10.0 mi East 6.9 mph - N/A   Clear
2:53 AM 59.0 °F - 53.1 °F 81% 30.14 in 10.0 mi ENE 4.6 mph - N/A   Clear
3:53 AM 59.0 °F - 53.1 °F 81% 30.12 in 10.0 mi NE 6.9 mph - N/A   Clear
4:53 AM 57.9 °F - 53.1 °F 84% 30.10 in 10.0 mi ENE 6.9 mph - N/A   Clear
5:53 AM 57.9 °F - 52.0 °F 81% 30.10 in 10.0 mi NE 6.9 mph - N/A   Clear
6:53 AM 57.9 °F - 53.1 °F 84% 30.10 in 10.0 mi ENE 9.2 mph - N/A   Clear
7:53 AM 57.9 °F - 54.0 °F 87% 30.11 in 10.0 mi ENE 6.9 mph - N/A   Clear
8:53 AM 63.0 °F - 55.9 °F 78% 30.12 in 10.0 mi East 8.1 mph - N/A   Partly Cloudy
9:53 AM 71.1 °F - 57.0 °F 61% 30.13 in 10.0 mi East 8.1 mph - N/A   Clear
10:53 AM 75.0 °F - 57.9 °F 55% 30.15 in 10.0 mi East 8.1 mph - N/A   Clear
11:53 AM 77.0 °F - 55.9 °F 48% 30.14 in 10.0 mi SE 12.7 mph 18.4 mph N/A   Clear
12:53 PM 79.0 °F - 57.9 °F 48% 30.12 in 10.0 mi SE 5.8 mph 17.3 mph N/A   Partly Cloudy
1:53 PM 80.1 °F 80.4 °F 57.0 °F 45% 30.09 in 10.0 mi ENE 6.9 mph - N/A   Scattered Clouds
2:53 PM 80.1 °F 80.4 °F 57.0 °F 45% 30.06 in 10.0 mi SSW 10.4 mph - N/A   Partly Cloudy
3:53 PM 79.0 °F - 57.0 °F 47% 30.04 in 10.0 mi SW 10.4 mph - N/A   Scattered Clouds
4:53 PM 79.0 °F - 57.0 °F 47% 30.04 in 10.0 mi WSW 9.2 mph - N/A   Scattered Clouds
5:53 PM 78.1 °F - 57.9 °F 50% 30.03 in 10.0 mi WSW 8.1 mph - N/A   Partly Cloudy
6:53 PM 75.0 °F - 60.1 °F 60% 30.04 in 10.0 mi SW 8.1 mph - N/A   Clear
7:53 PM 73.0 °F - 63.0 °F 71% 30.03 in 10.0 mi SSW 8.1 mph - N/A   Clear
8:53 PM 71.1 °F - 63.0 °F 75% 30.04 in 10.0 mi Calm Calm - N/A   Clear
9:53 PM 70.0 °F - 63.0 °F 78% 30.04 in 10.0 mi SE 3.5 mph - N/A   Scattered Clouds
10:53 PM 69.1 °F - 63.0 °F 81% 30.06 in 10.0 mi East 5.8 mph - N/A   Clear
11:53 PM 68.0 °F - 61.0 °F 78% 30.05 in 10.0 mi East 4.6 mph - N/A   Clear